Weather History for Ankeny, IA

Change the Weather History Date:

Friday, November 8, 2013

  Actual Average (KDSM) Record (KDSM)
Temperature  
Mean Temperature 42 °F 43 °F  
Max Temperature 60 °F 52 °F 80 °F (1999)
Min Temperature 23 °F 34 °F -4 °F (1991)
Degree Days  
Heating Degree Days 24 22  
Month to date heating degree days 160  
Since 1 July heating degree days 644  
Cooling Degree Days 0 0  
Month to date cooling degree days 0  
Year to date cooling degree days 1066  
Moisture  
Dew Point 30 °F    
Average Humidity 62    
Maximum Humidity 93    
Minimum Humidity 36    
Precipitation  
Precipitation 0.00 in 0.08 in 1.86 in (1879)
Month to date precipitation 0.67  
Year to date precipitation 33.08  
Snow  
Snow 0.00 in 0.10 in 5.70 in (1932)
Month to date snowfall 0.3  
Since 1 July snowfall 0.7  
Since 1 September snowfall 0.7  
Snow Depth -    
Sea Level Pressure  
Sea Level Pressure 30.00 in    
Wind  
Wind Speed 8 mph (South)    
Max Wind Speed 31 mph    
Max Gust Speed 38 mph    
Visibility 10 miles    
Events      
T = Trace of Precipitation, MM = Missing Value Source: NWS Daily Summary

Daily Weather History Graph

Daily Weather History Graph

Search for Another Location

Airport:

Trip Planner

Search our weather history database for the weather conditions in past years. The results will help you decide how hot, cold, wet, or windy it might be!

Date:

Astronomy

Nov. 08, 2013 Rise Set
Actual Time 6:55 AM CST 5:00 PM CST
Civil Twilight 6:25 AM CST 5:29 PM CST
Nautical Twilight 5:52 AM CST 6:02 PM CST
Astronomical Twilight 5:19 AM CST 6:35 PM CST
Moon 11:51 AM CST (11/8) 10:22 PM CST (11/8)
Length of Visible Light 11h 03m
Length of Day
10h 05m
Waxing Crescent, 33% of the Moon is Illuminated
Nov 8
Waxing Crescent
Nov 9
First Quarter
Nov 17
Full
Nov 25
Last Quarter
Dec 2
New

Hourly Weather History & Observations

Time (CST) Temp. Windchill Dew Point Humidity Pressure Visibility Wind Dir Wind Speed Gust Speed Precip Events Conditions
12:15 AM 26.6 °F 22.6 °F 23.0 °F 86% 30.29 in 10.0 mi SSE 3.5 mph - N/A   Clear
12:35 AM 26.6 °F 21.2 °F 23.0 °F 86% 30.28 in 10.0 mi SSE 4.6 mph - N/A   Clear
12:55 AM 24.8 °F - 23.0 °F 93% 30.28 in 10.0 mi Calm Calm - N/A   Clear
1:15 AM 26.6 °F - 23.0 °F 86% 30.27 in 10.0 mi Calm Calm - N/A   Clear
1:35 AM 24.8 °F 20.5 °F 23.0 °F 93% 30.27 in 10.0 mi South 3.5 mph - N/A   Clear
1:55 AM 24.8 °F - 21.2 °F 86% 30.27 in 10.0 mi Calm Calm - N/A   Clear
2:15 AM 26.6 °F 21.2 °F 23.0 °F 86% 30.27 in 10.0 mi South 4.6 mph - N/A   Clear
2:35 AM 24.8 °F 20.5 °F 21.2 °F 86% 30.27 in 10.0 mi SSE 3.5 mph - N/A   Clear
2:55 AM 26.6 °F 22.6 °F 23.0 °F 86% 30.26 in 10.0 mi SSE 3.5 mph - N/A   Clear
3:15 AM 24.8 °F - 21.2 °F 86% 30.26 in 10.0 mi Calm Calm - N/A   Clear
3:35 AM 26.6 °F - 23.0 °F 86% 30.25 in 10.0 mi Calm Calm - N/A   Clear
3:55 AM 26.6 °F - 23.0 °F 86% 30.25 in 10.0 mi Calm Calm - N/A   Clear
4:15 AM 24.8 °F - 23.0 °F 93% 30.24 in 10.0 mi Calm Calm - N/A   Clear
4:35 AM 23.0 °F 18.4 °F 21.2 °F 93% 30.24 in - SSE 3.5 mph - N/A   Unknown
4:55 AM 24.8 °F 19.1 °F 23.0 °F 93% 30.24 in 10.0 mi SSE 4.6 mph - N/A   Clear
5:15 AM 24.8 °F 20.5 °F 23.0 °F 93% 30.23 in 10.0 mi SE 3.5 mph - N/A   Clear
5:35 AM 26.6 °F 21.2 °F 23.0 °F 86% 30.22 in 10.0 mi SSE 4.6 mph - N/A   Clear
5:55 AM 26.6 °F 21.2 °F 23.0 °F 86% 30.21 in 10.0 mi SSE 4.6 mph - N/A   Clear
6:15 AM 26.6 °F 20.0 °F 23.0 °F 86% 30.20 in 10.0 mi South 5.8 mph - N/A   Clear
6:35 AM 26.6 °F 22.6 °F 23.0 °F 86% 30.20 in 10.0 mi SE 3.5 mph - N/A   Clear
6:55 AM 28.4 °F 23.3 °F 23.0 °F 80% 30.20 in 10.0 mi SSE 4.6 mph - N/A   Clear
7:15 AM 28.4 °F 23.3 °F 24.8 °F 86% 30.19 in 10.0 mi SSE 4.6 mph - N/A   Clear
7:35 AM 30.2 °F 23.4 °F 24.8 °F 80% 30.19 in 10.0 mi South 6.9 mph - N/A   Clear
7:55 AM 32.0 °F 25.6 °F 24.8 °F 75% 30.18 in 10.0 mi SE 6.9 mph - N/A   Clear
8:15 AM 33.8 °F 27.0 °F 26.6 °F 75% 30.17 in 10.0 mi SSE 8.1 mph - N/A   Clear
8:35 AM 33.8 °F 27.0 °F 26.6 °F 75% 30.17 in 10.0 mi SSE 8.1 mph - N/A   Clear
8:55 AM 35.6 °F 29.2 °F 26.6 °F 70% 30.16 in 10.0 mi SSE 8.1 mph - N/A   Clear
9:15 AM 35.6 °F 27.5 °F 26.6 °F 70% 30.13 in 10.0 mi SSE 11.5 mph - N/A   Clear
9:35 AM 37.4 °F 30.3 °F 26.6 °F 65% 30.12 in 10.0 mi SSE 10.4 mph - N/A   Clear
9:55 AM 39.2 °F 31.6 °F 26.6 °F 61% 30.11 in 10.0 mi SSE 12.7 mph - N/A   Clear
10:15 AM 41.0 °F 33.5 °F 28.4 °F 61% 30.10 in 10.0 mi SSE 13.8 mph - N/A   Light Drizzle
10:35 AM 42.8 °F 35.8 °F 28.4 °F 57% 30.08 in 10.0 mi SSE 13.8 mph 23.0 mph N/A   Light Drizzle
10:55 AM 42.8 °F 34.8 °F 28.4 °F 57% 30.06 in 10.0 mi SSE 17.3 mph - N/A   Clear
11:15 AM 48.2 °F - 30.2 °F 50% 30.03 in 10.0 mi SSE 16.1 mph - N/A   Clear
11:35 AM 48.2 °F - 30.2 °F 50% 30.01 in 10.0 mi SSE 21.9 mph 29.9 mph N/A   Clear
11:55 AM 50.0 °F - 30.2 °F 47% 29.98 in 10.0 mi SSE 18.4 mph 31.1 mph N/A   Clear
12:15 PM 50.0 °F - 32.0 °F 50% 29.95 in 10.0 mi SSE 19.6 mph 31.1 mph N/A   Clear
12:35 PM 51.8 °F - 32.0 °F 47% 29.93 in 10.0 mi SSE 19.6 mph 33.4 mph N/A   Clear
12:55 PM 53.6 °F - 33.8 °F 47% 29.90 in 10.0 mi SSE 23.0 mph 36.8 mph N/A   Clear
1:15 PM 55.4 °F - 33.8 °F 44% 29.86 in 10.0 mi SSE 25.3 mph 34.5 mph N/A   Clear
1:35 PM 57.2 °F - 33.8 °F 41% 29.84 in 10.0 mi SSE 20.7 mph 38.0 mph N/A   Clear
1:55 PM 57.2 °F - 33.8 °F 41% 29.82 in 10.0 mi South 25.3 mph 36.8 mph N/A   Clear
2:15 PM 57.2 °F - 33.8 °F 41% 29.83 in 10.0 mi South 21.9 mph 33.4 mph N/A   Clear
2:35 PM 57.2 °F - 33.8 °F 41% 29.83 in 10.0 mi South 19.6 mph 28.8 mph N/A   Clear
2:55 PM 59.0 °F - 33.8 °F 39% 29.81 in 10.0 mi South 31.1 mph 38.0 mph N/A   Clear
3:15 PM 59.0 °F - 33.8 °F 39% 29.80 in 10.0 mi South 18.4 mph 32.2 mph N/A   Clear
3:35 PM 60.8 °F - 33.8 °F 36% 29.80 in 10.0 mi South 23.0 mph 34.5 mph N/A   Clear
3:55 PM 59.0 °F - 33.8 °F 39% 29.80 in 10.0 mi South 23.0 mph 29.9 mph N/A   Clear
4:15 PM 59.0 °F - 33.8 °F 39% 29.82 in 10.0 mi South 13.8 mph 26.5 mph N/A   Clear
4:35 PM 59.0 °F - 35.6 °F 42% 29.81 in 10.0 mi South 13.8 mph - N/A   Clear
4:55 PM 57.2 °F - 33.8 °F 41% 29.80 in 10.0 mi South 20.7 mph 26.5 mph N/A   Clear
5:15 PM 57.2 °F - 33.8 °F 41% 29.78 in 10.0 mi South 17.3 mph 25.3 mph N/A   Clear
5:35 PM 57.2 °F - 35.6 °F 44% 29.78 in 10.0 mi South 18.4 mph 27.6 mph N/A   Clear
5:55 PM 57.2 °F - 35.6 °F 44% 29.79 in 10.0 mi South 16.1 mph 23.0 mph N/A   Clear
6:15 PM 55.4 °F - 35.6 °F 47% 29.79 in 10.0 mi South 16.1 mph 21.9 mph N/A   Clear
6:35 PM 55.4 °F - 35.6 °F 47% 29.79 in 10.0 mi South 12.7 mph - N/A   Clear
6:55 PM 55.4 °F - 35.6 °F 47% 29.79 in 10.0 mi South 15.0 mph 20.7 mph N/A   Clear
7:15 PM 55.4 °F - 35.6 °F 47% 29.79 in 10.0 mi South 12.7 mph 18.4 mph N/A   Clear
7:35 PM 55.4 °F - 35.6 °F 47% 29.79 in 10.0 mi South 11.5 mph 19.6 mph N/A   Clear
7:55 PM 55.4 °F - 35.6 °F 47% 29.79 in 10.0 mi South 11.5 mph - N/A   Clear
8:15 PM 55.4 °F - 33.8 °F 44% 29.78 in 10.0 mi South 12.7 mph 18.4 mph N/A   Partly Cloudy
8:35 PM 55.4 °F - 33.8 °F 44% 29.79 in 10.0 mi SSW 12.7 mph - N/A   Clear
8:55 PM 55.4 °F - 33.8 °F 44% 29.79 in 10.0 mi SSW 10.4 mph - N/A   Clear
9:15 PM 53.6 °F - 33.8 °F 47% 29.80 in 10.0 mi SW 6.9 mph 12.7 mph N/A   Clear
9:35 PM 53.6 °F - 33.8 °F 47% 29.81 in 10.0 mi SW 10.4 mph - N/A   Clear
9:55 PM 53.6 °F - 33.8 °F 47% 29.82 in 10.0 mi SW 9.2 mph - N/A   Clear
10:15 PM 53.6 °F - 33.8 °F 47% 29.82 in 10.0 mi WSW 10.4 mph - N/A   Clear
10:35 PM 51.8 °F - 35.6 °F 54% 29.82 in 10.0 mi WSW 10.4 mph - N/A   Clear
10:55 PM 51.8 °F - 35.6 °F 54% 29.83 in 10.0 mi SW 9.2 mph - N/A   Clear
11:15 PM 51.8 °F - 35.6 °F 54% 29.83 in 10.0 mi WSW 9.2 mph - N/A   Clear
11:35 PM 50.0 °F - 35.6 °F 58% 29.83 in 10.0 mi SW 9.2 mph - N/A   Clear
11:55 PM 50.0 °F - 35.6 °F 58% 29.84 in 10.0 mi WSW 9.2 mph - N/A   Clear